Cozumel Airport, Mexico

1:24 PM EST on October 01, 2016 (GMT -0500)
Cozumel International

Weather History for MMCZ - November, 2012

Change the Weather History Date:

Wednesday, November 7, 2012

  Actual Average Record
Temperature  
Mean Temperature 74 °F -  
Max Temperature 80 °F 84 °F 87 °F (1996)
Min Temperature 69 °F 74 °F 62 °F (2010)
Cooling Degree Days 10    
Growing Degree Days 24 (Base 50)    
Moisture  
Dew Point 64 °F    
Average Humidity 74    
Maximum Humidity 94    
Minimum Humidity 57    
Precipitation  
Precipitation 0.00 in - - ()
Sea Level Pressure  
Sea Level Pressure 30.01 in    
Wind  
Wind Speed 9 mph ()    
Max Wind Speed 14 mph    
Max Gust Speed -    
Visibility 7.5 miles    
Events      
Averages and records for this station are not official NWS values.
T = Trace of Precipitation, MM = Missing Value Source: Averaged Metar Reports

Daily Weather History Graph

Daily Weather History Graph

Search for Another Location

Airport or City:

Trip Planner

Search our weather history database for the weather conditions in past years. The results will help you decide how hot, cold, wet, or windy it might be!

Date:

Astronomy

Nov. 07, 2012 Rise Set
Actual Time 5:53 AM CST 5:09 PM CST
Civil Twilight 5:30 AM CST 5:32 PM CST
Nautical Twilight 5:03 AM CST 5:58 PM CST
Astronomical Twilight 4:37 AM CST 6:25 PM CST
Moon No Moon Rise 12:30 PM CST (11/7)
Length of Visible Light 12h 02m
Length of Day
11h 16m
Last Quarter, 43% of the Moon is Illuminated
Nov 7
Last Quarter
Nov 13
New
Nov 20
First Quarter
Nov 28
Full
Dec 6
Last Quarter

Hourly Weather History & Observations

Time (CST) Temp. Heat Index Dew Point Humidity Pressure Visibility Wind Dir Wind Speed Gust Speed Precip Events Conditions
12:40 AM 71.6 °F - 66.2 °F 83% 29.99 in 7.0 mi NNW 8.1 mph - N/A   Scattered Clouds
1:51 AM 71.6 °F - 66.2 °F 83% 29.98 in 7.0 mi NW 11.5 mph - N/A   Scattered Clouds
2:53 AM 71.6 °F - 66.2 °F 83% 30.01 in 7.0 mi NNE 10.4 mph - N/A   Scattered Clouds
3:40 AM 69.8 °F - 66.2 °F 88% 29.98 in 7.0 mi NW 8.1 mph - N/A   Scattered Clouds
4:52 AM 69.8 °F - 66.2 °F 88% 29.98 in 7.0 mi NW 10.4 mph - N/A   Scattered Clouds
5:47 AM 69.8 °F - 66.2 °F 88% 29.98 in 7.0 mi NW 10.4 mph - N/A   Scattered Clouds
6:43 AM 69.8 °F - 68.0 °F 94% 30.01 in 7.0 mi WNW 6.9 mph - N/A   Partly Cloudy
7:51 AM 71.6 °F - 68.0 °F 88% 30.03 in 7.0 mi NW 9.2 mph - N/A   Clear
8:46 AM 75.2 °F - 69.8 °F 83% 30.07 in 8.0 mi NW 12.7 mph - N/A   Clear
9:46 AM 77.0 °F - 68.0 °F 74% 30.04 in 8.0 mi NW 13.8 mph - N/A   Scattered Clouds
10:51 AM 78.8 °F - 68.0 °F 69% 30.02 in 8.0 mi North 11.5 mph - N/A   Scattered Clouds
11:48 AM 78.8 °F - 68.0 °F 69% 29.97 in 8.0 mi North 10.4 mph - N/A   Scattered Clouds
12:42 PM 80.6 °F 83.2 °F 68.0 °F 65% 29.98 in 8.0 mi NNW 9.2 mph - N/A   Partly Cloudy
1:48 PM 80.6 °F 82.3 °F 64.4 °F 58% 29.97 in 8.0 mi NNW 12.7 mph - N/A   Partly Cloudy
2:42 PM 78.8 °F - 62.6 °F 57% 29.99 in 8.0 mi North 13.8 mph - N/A   Partly Cloudy
3:48 PM 77.0 °F - 60.8 °F 57% 29.97 in 8.0 mi North 13.8 mph - N/A   Partly Cloudy
4:46 PM 75.2 °F - 60.8 °F 61% 29.99 in 8.0 mi North 13.8 mph - N/A   Scattered Clouds
5:44 PM 71.6 °F - 59.0 °F 64% 29.98 in 8.0 mi North 13.8 mph - N/A   Clear
6:49 PM 71.6 °F - 60.8 °F 69% 30.03 in 8.0 mi North 11.5 mph - N/A   Clear
7:53 PM 71.6 °F - 59.0 °F 64% 30.05 in 7.0 mi North 11.5 mph - N/A   Clear
8:47 PM 71.6 °F - 60.8 °F 69% 30.09 in 7.0 mi NNW 11.5 mph - N/A   Clear
9:44 PM 71.6 °F - 60.8 °F 69% 30.07 in 7.0 mi North 11.5 mph - N/A   Clear
10:46 PM 69.8 °F - 60.8 °F 73% 30.06 in 7.0 mi North 11.5 mph - N/A   Clear
11:45 PM 69.8 °F - 60.8 °F 73% 30.02 in 7.0 mi NNW 10.4 mph - N/A   Clear